Flight Track Log - Related Links

Times and Time Zones

All times are in EDT time to prevent confusion due to time zone crossing. See the FLG4141 flight status page for this flight to view local times or setup timezone preferences in your user account.

Time Position Orientation Groundspeed Altitude Reporting Facility
EDT Latitude Longitude Course Direction KTS MPH feet Rate Location/Type
Sat 10:47:07 PM 44.8833 -93.2500 144° Southeast 202 232 3,000  Level Minneapolis TRACON
Sat 10:47:43 PM 44.8656 -93.2981 242° Southwest 224 258 5,400 3,402 Climbing Minneapolis Center
Sat 10:48:44 PM 44.7936 -93.2678 163° South 296 341 8,500 2,803 Climbing Minneapolis Center
Sat 10:49:00 PM 44.5833 -93.0639 156° South  Level Estimated
Sat 10:49:45 PM 44.7081 -93.2122 155° Southeast 319 367 11,100  Level Minneapolis Center
Sat 10:50:00 PM 44.4837 -93.0116 152° Southeast  Level Estimated
Sat 10:50:45 PM 44.6258 -93.1589 155° Southeast 376 433 12,500  Level Minneapolis Center
Sat 10:51:00 PM 44.3841 -92.9595 157° South  Level Estimated
Sat 10:51:46 PM 44.5244 -93.0933 155° Southeast 404 465 14,800  Level Minneapolis Center
Sat 10:52:00 PM 44.2747 -92.9247 144° Southeast  Level FlightAware Approximate
Sat 10:52:47 PM 44.4194 -93.0250 155° Southeast 417 480 16,700  Level Minneapolis Center
Sat 10:53:47 PM 44.2842 -92.9411 156° South 440 506 17,000 149 Climbing Minneapolis Center
Sat 10:54:48 PM 44.1617 -92.8808 161° South 460 529 17,000  Level Minneapolis Center
Sat 10:55:49 PM 44.0400 -92.8208 160° South 465 535 17,000  Level Minneapolis Center
Sat 10:56:49 PM 43.9203 -92.7611 160° South 461 531 17,000  Level Minneapolis Center
Sat 10:57:50 PM 43.8003 -92.7014 160° South 461 531 17,000  Level Minneapolis Center
Sat 10:58:51 PM 43.7161 -92.6594 160° South 462 532 17,000  Level Minneapolis Center
Sat 10:59:51 PM 43.5714 -92.5889 161° South 463 533 17,000  Level Minneapolis Center
Sat 11:00:52 PM 43.4514 -92.5308 161° South 462 532 17,000  Level Minneapolis Center
Sat 11:01:53 PM 43.3058 -92.4608 161° South 464 534 17,000  Level Minneapolis Center
Sat 11:02:53 PM 43.1850 -92.4022 161° South 465 535 17,000  Level Minneapolis Center
Sat 11:03:54 PM 43.0633 -92.3419 160° South 469 540 17,000  Level Minneapolis Center
Sat 11:04:55 PM 42.9428 -92.2850 161° South 466 536 17,000  Level Minneapolis Center
Sat 11:05:55 PM 42.8211 -92.2261 160° South 468 539 17,000 -446 Level Minneapolis Center
Sat 11:06:56 PM 42.7003 -92.1683 161° South 469 540 16,100 -1,462 Descending Minneapolis Center
Sat 11:07:54 PM 42.5842 -92.1106 160° South 455 524 14,100 -1,831 Descending Chicago Center
Sat 11:08:54 PM 42.4750 -92.0608 161° South 429 494 12,500 -1,300 Descending Chicago Center
Sat 11:09:54 PM 42.3664 -92.0081 160° South 424 488 11,500 -1,041 Descending Chicago Center
Sat 11:10:55 PM 42.2756 -91.9636 160° South 361 415 10,400 -1,388 Descending Chicago Center
Sat 11:11:55 PM 42.1931 -91.9264 162° South 325 374 8,700 -1,686 Descending Chicago Center
Sat 11:12:56 PM 42.1200 -91.8853 157° South 303 349 7,000 -1,934 Descending Chicago Center
Sat 11:13:56 PM 42.0397 -91.8200 149° Southeast 288 331 4,800 -1,587 Descending Chicago Center
Sat 11:14:57 PM 41.9833 -91.7581 141° Southeast 274 315 3,800 -893 Descending Chicago Center
Sat 11:15:57 PM 41.9378 -91.6936 134° Southeast 255 293 3,000 -446 Descending Chicago Center
Sat 11:16:58 PM 41.8981 -91.6344 132° Southeast 236 272 2,900 -298 Descending Chicago Center
Sat 11:17:58 PM 41.8600 -91.5906 139° Southeast 218 251 2,400 -500 Descending Chicago Center

Login

Don't have an account? Register now (free) for customized features, flight alerts, and more!